sat.trackr.live / text

‹ back to catalog

YAOGAN-30 09B

NORAD 48424 · 2021-039B

PAYLOAD ACTIVE UNKNOWN

§ Identity

Operator
Country
PRC
Launch date
2021-05-06
Launch site
XICLF
Launch vehicle
Mass (kg)
RCS (m²)

External: N2YO · Heavens-Above · Gunter

§ Orbital elements

Epoch: 2026-05-25T05:13:36.585120Z

Period
95.84 min
Inclination
34.9940°
Eccentricity
0.0004424
Mean motion
15.02574888 rev/d
Perigee alt
555.9 km
Apogee alt
562.0 km
Semi-major
6,937.1 km
B*
1.3310e-4
RAAN
171.0356°
Arg perigee
335.5817°
Mean anomaly
24.4681°
Rev number
27,608

§ Raw data

YAOGAN-30 09B1 48424U 21039B   26145.21778455  .00001778  00000+0  13310-3 0  99972 48424  34.9940 171.0356 0004424 335.5817  24.4681 15.02574888276088

JSON: /api/v1/satellites/48424 · /tle

For live sub-satellite position, see the globe view (requires WebGL).

§ Visibility from observer

Set your observer location to see the next 7 days of passes ≥ 10°. The values pass through the URL so the page stays shareable.

No JS? Fill the form by hand. The geolocation button needs JavaScript.